Location: Serpentine
(32.3617°S, 115.9768°E)
Time: 11:52:50
(UTC+08:00)

Envisat - Visible Passes

Search period start: 29 March 2020 00:00
Search period end: 08 April 2020 00:00
Orbit: 764 x 766 km, 98.1° (Epoch: 28 March)

Date Brightness Start Highest point End Pass type
(mag) Time Alt. Az. Time Alt. Az. Time Alt. Az.
29 Mar 5.8 04:59:42 10° ENE 05:03:14 19° ESE 05:06:48 10° SSE visible
29 Mar 3.2 18:50:27 10° S 18:55:36 80° WSW 19:00:42 10° NNW visible
30 Mar 3.2 06:00:00 10° NNE 06:05:05 83° ESE 06:10:15 10° S visible
30 Mar 5.8 19:53:58 10° SSW 19:57:27 19° WSW 20:00:54 10° WNW visible
31 Mar 4.8 05:23:55 10° NE 05:28:28 34° ESE 05:33:06 10° S visible
31 Mar 4.3 19:16:08 10° S 19:20:58 43° WSW 19:25:46 10° NW visible
01 Apr 6.0 04:49:15 10° E 04:52:04 15° ESE 04:54:53 10° SSE visible
01 Apr 3.0 18:39:09 10° SSE 18:44:19 79° ENE 18:49:24 10° N visible
02 Apr 3.6 05:48:47 10° NNE 05:53:49 64° ESE 05:58:54 10° S visible
02 Apr 5.4 19:42:13 10° SSW 19:46:15 24° WSW 19:50:15 10° WNW visible
03 Apr 5.3 05:13:02 10° NE 05:17:15 27° ESE 05:21:31 10° SSE visible
03 Apr 3.8 19:04:42 10° S 19:09:43 55° WSW 19:14:41 10° NNW visible
04 Apr 6.2 04:39:18 10° E 04:40:54 11° ESE 04:42:30 10° SE visible
04 Apr 3.1 18:27:54 10° SSE 18:33:00 61° E 18:38:01 10° N visible
04 Apr 6.1 20:09:07 10° SW 20:11:25 13° WSW 20:13:43 10° W visible
05 Apr 4.1 05:37:39 10° NNE 05:42:32 49° ESE 05:47:29 10° S visible
05 Apr 5.0 19:30:36 10° S 19:35:02 30° WSW 19:39:26 10° NW visible
06 Apr 5.6 05:02:17 10° ENE 05:06:03 21° ESE 05:09:50 10° SSE visible
06 Apr 3.3 18:53:18 10° S 18:58:27 73° WSW 19:03:31 10° NNW visible
07 Apr 3.1 06:02:50 10° NNE 06:07:56 89° WNW 06:13:06 10° SSW visible
07 Apr 5.8 19:57:02 10° SSW 20:00:15 17° WSW 20:03:27 10° WNW visible
